Regional Weather Roundup
Issued by NWS

Home | Current Version | Previous Version | Graphics & Text | Print | Product List | Glossary Off
Versions: 1 2 3 4 5 6 7 8 9 10 11 12 13 14 15 16 17 18 19 20 21 22 23 24 25 26 27 28 29 30 31 32 33 34 35 36 37 38 39 40 41 42 43 44 45 46 47 48 49 50

000
ASUS43 KDMX 112201
RWRIA

WEATHER ROUNDUP FOR IOWA
NATIONAL WEATHER SERVICE DES MOINES IA
400 PM CST MON DEC 11 2017

NOTE: "FAIR" INDICATES FEW OR NO CLOUDS BELOW 12,000 FEET WITH NO
SIGNIFICANT WEATHER AND/OR OBSTRUCTIONS TO VISIBILITY.

* - THESE STATIONS ARE NOT NWS STATIONS...THUS NOT UNDER NWS
QUALITY CONTROL.  THEY ALSO DO NOT REPORT WEATHER SUCH
AS PRECIPITATION OR FOG.

IAZ001>003-012>014-020>022-031>034-043>046-112300-
   NORTHWEST IOWA

CITY           SKY/WX    TMP DP  RH WIND       PRES   REMARKS
CARROLL *      CLOUDY    34  28  80 N29G38    30.03R WCI  20
CHEROKEE *     CLOUDY    33  26  73 N23G33    30.09R WCI  21
DENISON *      CLOUDY    36  28  75 N28G36    30.07R WCI  23
LE MARS *      CLOUDY    37  27  65 N23G32    30.11R WCI  26
ORANGE CITY *  CLOUDY    36  28  75 N16G28    30.11R WCI  26
SHELDON *      CLOUDY    32  25  74 N28G36    30.09R WCI  18
SIOUX CITY     CLOUDY    39  27  62 N29G39    30.11R WCI  27
SPENCER        CLOUDY    30  22  72 N25G41    30.07R WCI  16
STORM LAKE *   CLOUDY    32  25  74 N24G37    30.05R WCI  19
$$

IAZ055>058-069>071-079>083-090>094-112300-
   SOUTHWEST IOWA

CITY           SKY/WX    TMP DP  RH WIND       PRES   REMARKS
ATLANTIC *     CLOUDY    41  30  65 N22G38    30.04R
AUDUBON *      CLOUDY    36  28  75 N21G35    30.05R WCI  24
CLARINDA *     MIX PCPN  45  36  70 N20G29      N/A
COUNCIL BLFS * CLOUDY    41  34  75 N30G41    30.06R
CRESTON *      CLOUDY    41  32  70 NW28G43   30.00R
HARLAN  *      CLOUDY    39  30  70 N28G36    30.09R WCI  28
LAMONI         CLOUDY    43  32  65 NW24G30   29.96R
RED OAK *      CLOUDY    43  34  70 NW21G29   30.05R
SHENANDOAH *   CLOUDY    45  34  65 NW22G31   30.06R
$$

IAZ047>049-059>061-072>074-084-112300-
   CENTRAL IOWA

CITY           SKY/WX    TMP DP  RH WIND       PRES   REMARKS
AMES           CLOUDY    39  32  76 NW23G32   29.95R WCI  28
ANKENY *       CLOUDY    39  32  75 NW22G32   29.96R WCI  29
BOONE *        CLOUDY    37  30  75 NW25G37   29.95R WCI  26
CHARITON *     CLOUDY    41  32  70 NW24G35   29.93R
DES MOINES     CLOUDY    41  32  70 NW26G35   29.95R
GRINNELL*      CLOUDY    39  32  77 NW23G29   29.89R WCI  28
KNOXVILLE *    CLOUDY    41  30  65 NW22G41   29.91R
MARSHALLTOWN   CLOUDY    38  33  82 NW22G37   29.89R WCI  27
NEWTON *       CLOUDY    39  32  75 N25G33    29.91R WCI  28
PELLA *        CLOUDY    41  32  70 NW20G36   29.92R
PERRY *        CLOUDY    37  28  70 NW24G37   30.00R WCI  25
$$

IAZ004>006-015-016-023>025-035-036-112300-
   NORTH CENTRAL IOWA

CITY           SKY/WX    TMP DP  RH WIND       PRES   REMARKS
ALGONA *       CLOUDY    32  30  93 NW29G41   29.99R WCI  18
CLARION *      CLOUDY    36  34  93 NW23G33   29.95R WCI  24
ESTHERVILLE    CLOUDY    29  26  89 NW33G41   30.04R WCI  13
FORT DODGE *   CLOUDY    34  28  79 NW17G24   29.99R WCI  23
MASON CITY     CLOUDY    36  30  79 NW30G39   29.93R WCI  23
FOREST CITY *  CLOUDY    36  32  87 N21G31    29.94R WCI  24
WEBSTER CITY * CLOUDY    36  30  80 NW26G36   29.94R WCI  23
IOWA FALLS *   CLOUDY    38  32  78 NW25G36   29.91R WCI  27
$$

IAZ007>011-017>019-026>030-037>042-050>054-066-112300-
   NORTHEAST IOWA

CITY           SKY/WX    TMP DP  RH WIND       PRES   REMARKS
CEDAR RAPIDS   LGT SNOW  34  33  96 NW12      29.82R FOG     WCI  25
CHARLES CITY * CLOUDY    36  36 100 N20G33    29.88R WCI  25
CLINTON *      LGT SNOW  33  32  96 NW10      29.78R FOG     WCI  25
DECORAH *      CLOUDY    34  32  93 NW20G28   29.83R WCI  22
DUBUQUE        CLOUDY    31  29  92 N13       29.78R FOG     WCI  21
MONTICELLO *   CLOUDY    34  32  93 NW9       29.80R WCI  26
OELWEIN *      CLOUDY    36  36 100 NW23      29.83R WCI  24
WATERLOO       CLOUDY    36  32  85 NW26G35   29.85R WCI  24
$$

IAZ064-065-067-068-078-112300-
   EAST CENTRAL IOWA

CITY           SKY/WX    TMP DP  RH WIND       PRES   REMARKS
DAVENPORT      LGT SNOW  33  31  92 NW10      29.80R FOG     WCI  25
IOWA CITY      LGT SNOW  36  33  89 NW13      29.85R FOG     WCI  27
MT. PLEASANT * DRIZZLE   39  33  78 NW16G26   29.85R WCI  30
MUSCATINE *    LGT RAIN  39  34  81 NW18G25   29.83R WCI  30
QUAD CITIES    LGT SNOW  37  33  85 NW16G28   29.78R FOG     WCI  28
$$

IAZ062-063-075>077-085>089-095>099-112300-
   SOUTHEAST IOWA

CITY           SKY/WX    TMP DP  RH WIND       PRES   REMARKS
BURLINGTON     CLOUDY    42  33  70 NW16G29   29.81R
FAIRFIELD *    CLOUDY    39  34  81 NW15G24   29.85R WCI  31
FORT MADISON * CLOUDY    43  34  70 NW23G31   29.84R
KEOKUK *       CLOUDY    43  34  70 NW23G31   29.84R
OSKALOOSA *    CLOUDY    41  32  70 NW23      29.88R
OTTUMWA        CLOUDY    43  32  65 NW23G30   29.88R
WASHINGTON *   LGT RAIN  37  37 100 NW23G29   29.85R WCI  26
$$

ABBREVIATIONS USED IN REMARKS
   TC - TEMPERATURES IN CELSIUS
  WCI - WIND CHILL INDEX
   HX - HEAT INDEX
  VSB - VISIBILITY
$$





USA.gov is the U.S. government's official web portal to all federal, state and local government web resources and services.